Location: Cucq
(50.4773°N, 1.6202°E)
Time: 16:09:56
(UTC+00:00)

Cosmos 2333 - Pass Details

Date: 07 August 2020
Orbit: 830 x 866 km, 70.9° (Epoch: 24 September)

Event Time Altitude Azimuth Distance (km) Brightness Sun altitude
Rises 00:00:04 0° 329° (NNW) 3,461 8.3 -23.2°
Reaches altitude 10° 00:02:33 10° 327° (NNW) 2,520 7.4 -23.2°
Maximum altitude 00:08:20 71° 245° (WSW) 917 4.2 -23.2°
Enters shadow 00:09:34 54° 184° (S) 1,047 4.3 -23.1°
